Location: Ar Ranvel
(48.3000°N, 4.8833°W)
Time: 05:46:42
(UTC+00:00)

FALCON 9 DEB - Pass Details

Date: 28 October 2021
Orbit: 417 x 427 km, 53.0° (Epoch: 30 November)

Event Time Altitude Azimuth Distance (km) Brightness Sun altitude
Rises 18:27:08 0° 226° (SW) 2,388 7.7 -13.9°
Reaches altitude 10° 18:29:16 10° 221° (SW) 1,525 6.5 -14.2°
Maximum altitude 18:32:34 49° 146° (SE) 567 3.4 -14.8°
Enters shadow 18:33:45 32° 92° (E) 757 3.8 -15.0°
